| time (UTC) | temp F | wind direction | speed knots | gust knots | rain 1hr in | rain 24hr in | rain mn in | humidity % | barometer mb |
| 20260906101207 | 60 | 84 | 0.0 | 0.0 | 0.00 | 0.00 | 0.00 | 100 | 1013.3 |
| 20260906095207 | 60 | 84 | 0.0 | 0.0 | 0.00 | 0.00 | 0.00 | 100 | 1013.2 |
| 20260906093207 | 60 | 84 | 0.0 | 0.0 | 0.00 | 0.00 | 0.00 | 100 | 1013.0 |
| 20260906093104 | 60 | 84 | 0.0 | 0.0 | 0.00 | 0.00 | 0.00 | 100 | 1012.9 |
| 20260906085207 | 60 | 84 | 0.0 | 0.0 | 0.00 | 0.00 | 0.00 | 100 | 1012.9 |
| 20260906083206 | 60 | 84 | 0.0 | 0.0 | 0.00 | 0.00 | 0.00 | 100 | 1012.8 |
| 20260906083104 | 60 | 84 | 0.0 | 0.0 | 0.00 | 0.00 | 0.00 | 100 | 1012.9 |
| 20260906081207 | 60 | 84 | 0.0 | 0.0 | 0.00 | 0.00 | 0.00 | 100 | 1012.8 |
| 20260906073207 | 61 | 84 | 0.0 | 0.0 | 0.00 | 0.00 | 0.00 | 100 | 1012.8 |
| 20260906073104 | 61 | 84 | 0.0 | 0.0 | 0.00 | 0.00 | 0.00 | 100 | 1012.7 |
| 20260906065207 | 61 | 84 | 0.0 | 0.0 | 0.00 | 0.00 | 0.00 | 100 | 1012.6 |
| 20260906063207 | 61 | 84 | 0.0 | 0.0 | 0.00 | 0.00 | 0.00 | 100 | 1012.6 |
| 20260906063104 | 61 | 84 | 0.0 | 0.0 | 0.00 | 0.00 | 0.00 | 100 | 1012.6 |
| 20260906055207 | 61 | 84 | 0.0 | 0.0 | 0.00 | 0.00 | 0.00 | 100 | 1012.7 |
| 20260906053207 | 61 | 84 | 0.0 | 0.0 | 0.00 | 0.00 | 0.00 | 100 | 1012.7 |
| 20260906053104 | 61 | 84 | 0.0 | 0.0 | 0.00 | 0.00 | 0.00 | 100 | 1012.7 |
| 20260906051206 | 61 | 84 | 0.0 | 0.0 | 0.00 | 0.00 | 0.00 | 100 | 1013.0 |
| 20260906045206 | 61 | 84 | 0.0 | 0.0 | 0.00 | 0.00 | 0.00 | 100 | 1013.0 |
| 20260906043208 | 61 | 84 | 0.0 | 0.0 | 0.00 | 0.00 | 0.00 | 100 | 1012.9 |
| 20260906043104 | 61 | 84 | 0.0 | 0.0 | 0.00 | 0.00 | 0.00 | 100 | 1012.9 |
| 20260906041207 | 61 | 84 | 0.0 | 0.0 | 0.00 | 0.00 | 0.00 | 100 | 1012.9 |
| 20260906033104 | 61 | 84 | 0.0 | 0.0 | 0.00 | 0.00 | 0.00 | 100 | 1012.9 |
| 20260906031207 | 61 | 84 | 0.0 | 0.0 | 0.00 | 0.00 | 0.00 | 100 | 1012.8 |
| 20260906025207 | 61 | 84 | 0.0 | 0.0 | 0.00 | 0.00 | 0.00 | 100 | 1012.5 |
| 20260906023104 | 62 | 83 | 0.0 | 0.0 | 0.00 | 0.00 | 0.00 | 100 | 1012.6 |
| 20260906021206 | 62 | 84 | 0.0 | 0.0 | 0.00 | 0.00 | 0.00 | 100 | 1012.6 |
| 20260906015207 | 62 | 84 | 0.0 | 0.0 | 0.00 | 0.00 | 0.00 | 100 | 1012.8 |
| 20260906013206 | 63 | 310 | 0.0 | 0.0 | 0.00 | 0.00 | 0.00 | 100 | 1012.8 |
| 20260906013104 | 63 | 310 | 0.0 | 0.0 | 0.00 | 0.00 | 0.00 | 100 | 1012.8 |
| 20260906011206 | 64 | 309 | 0.0 | 0.0 | 0.00 | 0.00 | 0.00 | 100 | 1012.6 |
| 20260906005207 | 65 | 310 | 0.0 | 0.0 | 0.00 | 0.00 | 0.00 | 100 | 1012.4 |
| 20260906003207 | 65 | 310 | 0.0 | 0.0 | 0.00 | 0.00 | 0.00 | 100 | 1012.3 |
| 20260906003104 | 65 | 309 | 0.0 | 0.0 | 0.00 | 0.00 | 0.00 | 100 | 1012.1 |
| 20260906001207 | 65 | 309 | 0.0 | 0.0 | 0.00 | 0.00 | 0.00 | 100 | 1011.7 |
| 20260905235206 | 66 | 309 | 0.0 | 0.0 | 0.00 | 0.00 | 0.00 | 100 | 1011.4 |
| 20260905233206 | 66 | 309 | 0.0 | 0.0 | 0.00 | 0.00 | 0.00 | 100 | 1011.3 |
| 20260905233103 | 66 | 310 | 0.0 | 0.0 | 0.00 | 0.00 | 0.00 | 100 | 1011.3 |
| 20260905231206 | 67 | 310 | 0.0 | 0.0 | 0.00 | 0.00 | 0.00 | 100 | 1011.3 |
| 20260905225206 | 67 | 310 | 0.0 | 0.0 | 0.00 | 0.00 | 0.00 | 100 | 1011.2 |
| 20260905223206 | 68 | 309 | 0.0 | 0.0 | 0.00 | 0.00 | 0.00 | 100 | 1011.0 |
| 20260905223103 | 68 | 309 | 0.0 | 0.0 | 0.00 | 0.00 | 0.00 | 100 | 1011.0 |
| 20260905221206 | 68 | 309 | 0.0 | 0.0 | 0.00 | 0.00 | 0.00 | 100 | 1011.0 |
| 20260905215206 | 68 | 309 | 0.0 | 0.0 | 0.00 | 0.00 | 0.00 | 100 | 1010.6 |
| 20260905213207 | 68 | 309 | 0.0 | 0.0 | 0.00 | 0.00 | 0.00 | 100 | 1010.4 |
| 20260905213103 | 68 | 309 | 0.0 | 0.0 | 0.00 | 0.00 | 0.00 | 100 | 1010.4 |
| 20260905211206 | 68 | 309 | 0.0 | 0.0 | 0.00 | 0.00 | 0.00 | 100 | 1010.0 |
| 20260905205206 | 69 | 310 | 0.0 | 0.0 | 0.00 | 0.00 | 0.00 | 4 | 1010.4 |
| 20260905203206 | 72 | 309 | 0.0 | 0.0 | 0.00 | 0.00 | 0.00 | 34 | 1010.2 |
| 20260905203103 | 72 | 309 | 0.0 | 0.0 | 0.00 | 0.00 | 0.00 | 35 | 1010.2 |
| 20260905201206 | 72 | 307 | 0.0 | 0.0 | 0.00 | 0.00 | 0.00 | 37 | 1010.0 |
| 20260905195206 | 73 | 53 | 0.0 | 0.0 | 0.00 | 0.00 | 0.00 | 35 | 1009.6 |
| 20260905193207 | 74 | 53 | 0.0 | 0.0 | 0.00 | 0.00 | 0.00 | 37 | 1009.6 |
| 20260905193103 | 74 | 53 | 0.0 | 0.0 | 0.00 | 0.00 | 0.00 | 37 | 1009.5 |
| 20260905191207 | 74 | 58 | 0.0 | 0.0 | 0.00 | 0.00 | 0.00 | 40 | 1009.4 |
| 20260905185207 | 75 | 57 | 0.0 | 0.0 | 0.00 | 0.00 | 0.00 | 39 | 1009.3 |
| 20260905183209 | 75 | 57 | 0.0 | 0.0 | 0.00 | 0.00 | 0.00 | 39 | 1009.3 |
| 20260905183103 | 75 | 57 | 0.0 | 0.0 | 0.00 | 0.00 | 0.00 | 39 | 1009.3 |
| 20260905181206 | 75 | 57 | 0.0 | 0.0 | 0.00 | 0.00 | 0.00 | 39 | 1009.6 |
| 20260905175206 | 76 | 294 | 0.0 | 2.6 | 0.00 | 0.00 | 0.00 | 38 | 1009.4 |
| 20260905173206 | 76 | 296 | 0.0 | 2.6 | 0.00 | 0.00 | 0.00 | 39 | 1009.3 |
| 20260905173104 | 76 | 296 | 0.0 | 2.6 | 0.00 | 0.00 | 0.00 | 38 | 1009.3 |
| 20260905171206 | 76 | 296 | 0.0 | 2.6 | 0.00 | 0.00 | 0.00 | 33 | 1009.2 |
| 20260905165206 | 73 | 296 | 0.0 | 0.0 | 0.00 | 0.00 | 0.00 | 26 | 1009.3 |
| 20260905163206 | 72 | 296 | 0.0 | 0.0 | 0.00 | 0.00 | 0.00 | 29 | 1009.2 |
| 20260905163104 | 72 | 296 | 0.0 | 0.0 | 0.00 | 0.00 | 0.00 | 29 | 1009.3 |
| 20260905161206 | 73 | 294 | 0.0 | 0.0 | 0.00 | 0.00 | 0.00 | 33 | 1009.3 |
| 20260905155206 | 73 | 294 | 0.0 | 6.1 | 0.00 | 0.00 | 0.00 | 31 | 1009.2 |
| 20260905153206 | 74 | 294 | 0.0 | 6.1 | 0.00 | 0.00 | 0.00 | 33 | 1009.2 |
| 20260905153103 | 74 | 294 | 0.0 | 6.1 | 0.00 | 0.00 | 0.00 | 33 | 1009.2 |
| 20260905151206 | 74 | 54 | 0.0 | 6.1 | 0.00 | 0.00 | 0.00 | 31 | 1009.1 |
| 20260905145206 | 74 | 346 | 0.0 | 6.1 | 0.00 | 0.00 | 0.00 | 26 | 1009.0 |
| 20260905143206 | 73 | 289 | 0.9 | 6.1 | 0.00 | 0.00 | 0.00 | 15 | 1009.1 |
| 20260905143103 | 73 | 285 | 0.0 | 6.1 | 0.00 | 0.00 | 0.00 | 13 | 1009.1 |
| 20260905141206 | 71 | 290 | 0.0 | 6.1 | 0.00 | 0.00 | 0.00 | 6 | 1009.4 |
| 20260905135206 | 70 | 307 | 0.0 | 0.0 | 0.00 | 0.00 | 0.00 | 100 | 1009.5 |
| 20260905133206 | 68 | 293 | 0.0 | 0.0 | 0.00 | 0.00 | 0.00 | 100 | 1009.6 |
| 20260905133103 | 68 | 294 | 3.5 | 0.0 | 0.00 | 0.00 | 0.00 | 100 | 1009.6 |
| 20260905131206 | 66 | 315 | 0.0 | 0.0 | 0.00 | 0.00 | 0.00 | 100 | 1009.4 |
| 20260905125206 | 64 | 47 | 0.0 | 0.0 | 0.00 | 0.00 | 0.00 | 100 | 1009.8 |
| 20260905123207 | 63 | 47 | 0.0 | 0.0 | 0.00 | 0.00 | 0.00 | 100 | 1009.8 |
| 20260905123103 | 62 | 47 | 0.0 | 0.0 | 0.00 | 0.00 | 0.00 | 100 | 1009.8 |
| 20260905121206 | 61 | 47 | 0.0 | 0.0 | 0.00 | 0.00 | 0.00 | 100 | 1009.5 |
| 20260905115206 | 60 | 47 | 0.0 | 0.0 | 0.00 | 0.00 | 0.00 | 100 | 1009.3 |
| 20260905113207 | 59 | 47 | 0.0 | 0.0 | 0.00 | 0.00 | 0.00 | 100 | 1009.2 |
| 20260905113103 | 59 | 47 | 0.0 | 0.0 | 0.00 | 0.00 | 0.00 | 100 | 1009.2 |
| 20260905111210 | 58 | 47 | 0.0 | 0.0 | 0.00 | 0.00 | 0.00 | 100 | 1009.0 |
| 20260905105206 | 58 | 47 | 0.0 | 0.0 | 0.00 | 0.00 | 0.00 | 100 | 1008.7 |
| 20260905103206 | 58 | 47 | 0.0 | 0.0 | 0.00 | 0.00 | 0.00 | 100 | 1008.7 |
| 20260905103103 | 58 | 47 | 0.0 | 0.0 | 0.00 | 0.00 | 0.00 | 100 | 1008.7 |